Tracking 22130 objects as of 21-Jan-2021
HD Live streaming from Space Station
objects crossing your sky now

SL-14 R/B

Track SL-14 R/B now!
10-day predictions
SL-14 R/B is classified as:


NORAD ID: 18749
Int'l Code: 1988-001B
Perigee: 614.0 km
Apogee: 638.5 km
Inclination: 82.5 °
Period: 97.1 minutes
Semi major axis: 6997 km
RCS: 4.583 m2 (large)
Launch date: January 6, 1988
Source: Commonwealth of Independent States (former USSR) (CIS)
Launch site: PLESETSK MISSILE AND SPACE COMPLEX (PKMTR)

Note: This is a ROCKET BODY
aabbcc
Your satellite tracking list
Your tracking list is empty




NASA's NSSDC Master Catalog

Two Line Element Set (TLE):
1 18749U 88001B   21021.14099406  .00000084  00000-0  73219-5 0  9994
2 18749  82.5156 153.6439 0017444 303.4482 229.6304 14.83242880785234
Source of the keplerian elements: AFSPC